COSMOS 2251 DEB, 34451

Orbit data source: Space-Track

COSMOS 2251 DEB, 34451 is space debris in LEO originally from a launch on Wed, 16 Jun 1993 UTC launched from the Plesetsk Missile And Space Complex (PKMTR). The debris from Iridium 33, an American commercial communications satellite, has been tracked extensively since its accidental collision with the defunct Russian satellite Cosmos 2251 in 2009. This event, occurring at high speed in low Earth orbit (LEO), generated thousands of pieces of space debris, significantly increasing the risk of further collisions. The Iridium 33 debris cloud has impacted space traffic management and orbital debris mitigation strategies, making it a subject of ongoing study in space situational awareness.

Loading next visibility...
Identifier
34451, 1993-036SU
Orbit
LEO
Country
Flag of CISCIS
Related business
Manufacturer
Unknown
Mission
Spacecraft
Bus & Motor
Unknown
Mass
Unknown
Launch date (UTC)
1993-06-16 (33 years ago)
Launch vehicle
Unknown
Launch site
Plesetsk Missile And Space Complex (PKMTR)
Object type
Payload
Rocket body
Debris
Shape & HBR
Unknown shape, 0.1 m
Radar Cross Section
Small (<0.1 m²)

Expand to show TLE details & history
Last TLE update: 10 hours ago

TLE from 10 hours ago
0 COSMOS 2251 DEB
1 34451U 93036SU  26037.24202616  .00060694  00000-0  47293-2 0  9991
2 34451  74.0463 335.5264 0022313 338.8307  21.1954 15.00692012894665
Epoch: 2026-02-06T05:48Z
TLE epoch observation values (Epoch: 2026-02-06T05:48:31.060Z)
Latitude
-0.00005°
Longitude
112.01425°
Altitude
553.009 km
Speed
7.593 km/s
True Right ascension
22h 22m 06s
True Declination
0° 00' 00"
Sunlit
Object was in daylight at epoch
Visualization orbit readout
Latitude
Unknown
Longitude
Unknown
Altitude
Unknown
Speed
Unknown
Apparent Right ascension
Unknown
Apparent Declination
Unknown
Sunlit
N/A
Visualization observer readout
Local Sidereal Time
18:01:03
Azimuth
Unknown
Elevation
Unknown
Doppler factor
Unknown
Orbital elements
Apogee altitude
577.799 km
Perigee altitude
546.827 km
Semi-major axis
6,940.45 km
Eccentricity
0.00223
Inclination
74.0463°
RAAN
335.5264°
Arg. of periapsis
338.8307°
True anomaly
21.28808°
Mean anomaly
21.1954°
Eccentric anomaly
21.24172°
Mean motion
3.75372 °/min
Orbital period
95.9 mins
BSTAR
0.0047293
Loading maneuver chart data...
Computing Atmospheric mass density...

Documentation

Showing up to 5 results
|